This is the latest recevied weather packets stored in our database for station/object KC4MCQ-10. If no packets are shown the sender has not sent any weather packets the latest 10 day(s).
| Time | Temp. | Humidity | Pressure | Rain* | Wind** | Luminosity | Snow |
|---|---|---|---|---|---|---|---|
| 1788057608 | 25° C | 89% | 1018.9 hPa | 4.06 mm | 0.45 m/s, 126° | - | - |
| 1788057006 | 25° C | 90% | 1018.9 hPa | 4.06 mm | 0.45 m/s, 126° | - | - |
| 1788056406 | 25° C | 90% | 1019.2 hPa | 4.06 mm | 0.45 m/s, 126° | - | - |
| 1788055806 | 25° C | 90% | 1019.3 hPa | 4.06 mm | 0 m/s | - | - |
| 1788055204 | 25° C | 90% | 1019.3 hPa | 4.06 mm | 0 m/s | - | - |
| 1788054601 | 25° C | 89% | 1019.4 hPa | 4.06 mm | 0 m/s | - | - |
| 1788054000 | 25° C | 89% | 1019.5 hPa | 4.06 mm | 0.45 m/s, 126° | - | - |
| 1788053387 | 25° C | 89% | 1019.6 hPa | 4.06 mm | 0.45 m/s, 126° | - | - |
| 1788052785 | 25.56° C | 89% | 1019.8 hPa | 4.06 mm | 0.45 m/s, 126° | - | - |
| 1788052179 | 25.56° C | 88% | 1019.5 hPa | 4.06 mm | 0.45 m/s, 126° | - | - |
| 1788051578 | 25.56° C | 88% | 1019.2 hPa | 4.06 mm | 0.45 m/s, 126° | - | - |
| 1788050975 | 25.56° C | 88% | 1018.9 hPa | 4.06 mm | 0.45 m/s, 126° | - | - |
| 1788050374 | 26.11° C | 87% | 1018.7 hPa | 4.06 mm | 0 m/s | - | - |
| 1788049774 | 26.67° C | 85% | 1018.7 hPa | 4.06 mm | 0 m/s | - | - |
| 1788049168 | 27.22° C | 84% | 1018.7 hPa | 4.06 mm | 0.45 m/s, 126° | - | - |
| 1788048568 | 27.78° C | 82% | 1018.5 hPa | 4.06 mm | 0.45 m/s, 126° | - | - |
| 1788047966 | 27.78° C | 82% | 1018.4 hPa | 4.06 mm | 0.89 m/s, 138° | - | - |
| 1788047366 | 27.78° C | 83% | 1018.6 hPa | 4.06 mm | 1.79 m/s, 162° | - | - |
| 1788046765 | 27.78° C | 84% | 1018.7 hPa | 4.06 mm | 0.45 m/s, 144° | - | - |
| 1788046137 | 27.78° C | 84% | 1018.4 hPa | 4.06 mm | 0.89 m/s, 174° | - | - |
| 1788045536 | 27.78° C | 85% | 1017.9 hPa | 4.06 mm | 0.89 m/s, 151° | - | - |
| 1788044933 | 27.78° C | 84% | 1017.8 hPa | 4.06 mm | 0.45 m/s, 117° | - | - |
| 1788044332 | 27.78° C | 84% | 1017.8 hPa | 4.06 mm | 0.45 m/s, 130° | - | - |
| 1788043730 | 28.33° C | 83% | 1017.7 hPa | 4.06 mm | 0.45 m/s, 118° | - | - |
| 1788043129 | 28.33° C | 83% | 1017.5 hPa | 4.06 mm | 0.45 m/s, 101° | - | - |
* Rain latest 24 hours (hover to see other rain measurements)
** Current wind speed in m/s (hover to see current wind gust speed)